Simultaneous Nadir Overpasses (SNOs) Predictions

Prediction of SNOs between GOES-16 and NOAA-20 Satellite Orbit:

Table of predicted SNOs for the next 14.0 days since TLE Epoch: 12/14/2024
Index Date Time (GOES-16) GOES-16 Lat,Lon NOAA-20 Lat,Lon Distance(km) Time Diff (sec)
1 12/15/2024 18:24:38 -0.01, -75.19 -0.10, -75.61 47.51 80
2 12/16/2024 18:08:35 -0.01, -75.19 0.93, -71.09 468.32 80
3 12/18/2024 06:30:25 0.01, -75.19 0.29, -76.36 134.02 80
4 12/19/2024 06:09:02 0.01, -75.19 -0.74, -71.84 382.15 80
5 12/20/2024 18:31:02 -0.01, -75.22 -0.44, -77.16 221.15 80
6 12/21/2024 18:14:59 -0.01, -75.23 0.60, -72.64 295.85 80
7 12/23/2024 06:36:48 0.00, -75.25 0.62, -77.91 304.42 80
8 12/24/2024 06:15:26 0.00, -75.26 -0.42, -73.39 212.70 80
9 12/25/2024 18:37:25 0.00, -75.29 -0.74, -78.71 389.76 80
10 12/26/2024 18:21:22 0.00, -75.31 0.25, -74.19 127.76 80
